Location: Saluda
(35.2377°N, 82.3468°W)
Time: 04:48:03
(UTC+00:00)

Transit 2A - Visible Passes

Search period start: 16 April 2024 00:00
Search period end: 26 April 2024 00:00
Orbit: 597 x 955 km, 66.7° (Epoch: 15 April)

Date Brightness Start Highest point End Pass type
(mag) Time Alt. Az. Time Alt. Az. Time Alt. Az.
19 Apr 8.7 10:24:59 10° SE 10:26:29 12° ESE 10:28:01 10° E visible
22 Apr 7.4 10:19:52 10° S 10:23:44 33° ESE 10:27:46 10° NE visible
23 Apr 8.1 09:45:40 10° SSE 09:48:48 20° ESE 09:52:01 10° ENE visible
24 Apr 8.4 09:12:28 10° ESE 09:13:54 11° ESE 09:15:23 10° E visible
25 Apr 5.6 10:16:51 10° SSW 10:21:11 87° WNW 10:25:49 10° NNE visible
